Location: Alafon
(8.4500°N, 4.2333°E)
Time: 00:29:11
(UTC+00:00)

deb Explorer IX - Pass Details

Date: 26 July 2021
Orbit: 545 x 1091 km, 38.8° (Epoch: 19 September)

Event Time Altitude Azimuth Distance (km) Brightness Sun altitude
Rises 12:32:59 0° 246° (WSW) 2,859 ? 74.9°
Reaches altitude 10° 12:35:16 10° 253° (WSW) 2,019 ? 74.5°
Maximum altitude 12:39:40 41° 324° (NW) 1,016 ? 73.7°
Drops below altitude 10° 12:44:46 10° 33° (NNE) 2,336 ? 72.8°
Sets 12:47:36 0° 40° (NE) 3,368 ? 72.3°
